Powrót do katalogu

OPS 5960 DEB

AktywnyMEO
NORAD 43000·DEBRIS·🇺🇸 United States

Wystrzelony Nov 6, 1970 z Cape Canaveral Space Force Station

Loading…

Następne Przeloty (najbliższe 24 godziny)

TLE

ŚwieżeSource: Space-Track

Epoka: Sep 4, 2026, 17:57 UTC

1 43000U 70093D   26247.74793572 -.00000136  00000-0  00000-0 0  9992
2 43000  15.3322  34.3474 1181430 271.0638  75.4888  1.20555416 46587

Śledź OPS 5960 DEB w czasie rzeczywistym z AllMySat

Download on the App Store